Flag for Netherlands Weather past 2 weeks in Zoetermeer, Netherlands

43 °F

Passing clouds.

Feels Like: 40 °F
Forecast: 44 / 50 °F
Wind: 5 mph from North

Location: Rotterdam Zestienhoven Airport

Current Time: Nov 25, 2015 at 9:48:20 PM

Latest Report: Nov 25, 2015 at 9:25 PM

Visibility: N/A

Pressure: 29.80 "Hg

Humidity: 87%

Dew point: 39 °F

Location of ZoetermeerLocation

Historic Weather in Zoetermeer — Graph


Zoetermeer temperature yesterday

Maximum temperature yesterday: 45 °F (at 7:25 PM)
Minimum temperature yesterday: 39 °F (at 12:25 AM)
Average temperature yesterday: 41 °F

Past Weeks' High & Low Weather Summary

High59 °F (Nov 12, 1:25 PM)100% (Nov 14, 6:55 PM)30.27 "Hg (Nov 14, 6:55 PM)
Low28 °F (Nov 23, 2:25 AM)59% (Nov 13, 12:25 PM)29.27 "Hg (Nov 21, 9:25 AM)
Average49 °F84%29.88 "Hg
* Reported Nov 10 8:25 PM — Nov 25 8:25 PM, Zoetermeer, Weather by CustomWeather, © 2015

Note: Actual official high and low records may vary slightly from our data, if they occured in-between our weather recording intervals... More about our weather records


Zoetermeer weather history for previous 24 hours

Time TempWeatherWind HumidityBarometerVisibility
8:25 PM
Wed, Nov 25
45 °FLight rain. Passing clouds.12 mph87%29.80 "HgN/A
7:55 PM43 °FPassing clouds.8 mph87%29.77 "HgN/A
7:25 PM45 °FPassing clouds.8 mph87%29.77 "HgN/A
6:55 PM43 °FSprinkles. Partly cloudy.9 mph87%29.77 "HgN/A
6:25 PM41 °FPartly cloudy.6 mph93%29.74 "HgN/A
5:55 PM41 °FPassing clouds.1 mph87%29.74 "HgN/A
5:25 PM43 °FPassing clouds.7 mph87%29.74 "HgN/A
4:55 PM41 °FPartly cloudy.6 mph93%29.71 "HgN/A
4:25 PM43 °FPassing clouds.6 mph87%29.71 "HgN/A
3:55 PM43 °FLight rain. Broken clouds.13 mph93%29.71 "HgN/A
3:25 PM41 °FPassing clouds.5 mph93%29.68 "HgN/A
2:55 PM45 °FBroken clouds.1 mph81%29.68 "HgN/A
2:25 PM43 °FBroken clouds.3 mph87%29.71 "HgN/A
1:55 PM45 °FRain showers. Broken clouds.13 mph87%29.71 "Hg4 mi
1:25 PM45 °FPartly sunny.3 mph87%29.68 "HgN/A
12:55 PM45 °FPartly sunny.7 mph87%29.68 "HgN/A
12:25 PM46 °FLight rain. Broken clouds.8 mph82%29.71 "HgN/A
11:55 AM45 °FPassing clouds.8 mph87%29.68 "HgN/A
11:25 AM48 °FPassing clouds.10 mph76%29.68 "HgN/A
10:55 AM46 °FPassing clouds.6 mph82%29.68 "HgN/A
10:25 AM45 °FOvercast.7 mph87%29.68 "HgN/A
9:55 AM45 °FPassing clouds.9 mph87%29.68 "HgN/A
9:25 AM43 °FPassing clouds.9 mph93%29.68 "HgN/A
8:55 AM43 °FDrizzle. Broken clouds.8 mph93%29.68 "HgN/A
7:55 AM43 °FLight rain. Partly cloudy.14 mph93%29.68 "HgN/A
7:25 AM45 °FPartly cloudy.9 mph87%29.65 "HgN/A
6:55 AM45 °FClear.10 mph81%29.65 "HgN/A
6:25 AM43 °FPassing clouds.9 mph87%29.65 "HgN/A
5:55 AM45 °FPartly cloudy.8 mph81%29.65 "HgN/A
5:25 AM43 °FQuite cool.8 mph87%29.65 "HgN/A
4:55 AM45 °FQuite cool.9 mph81%29.65 "HgN/A
4:25 AM43 °FClear.8 mph93%29.65 "HgN/A
3:55 AM45 °FLight rain. Mostly cloudy.6 mph87%29.65 "HgN/A
3:25 AM45 °FPartly cloudy.7 mph93%29.68 "HgN/A
2:55 AM43 °FPassing clouds.7 mph93%29.65 "HgN/A
2:25 AM45 °FPassing clouds.7 mph93%29.65 "HgN/A
1:55 AM46 °FLight rain. Passing clouds.8 mph93%29.68 "HgN/A
12:55 AM45 °FRain. Mostly cloudy.6 mph100%29.68 "HgN/A
12:25 AM45 °FRain showers. Mostly cloudy.3 mph100%29.68 "Hg4 mi
11:55 PM
Tue, Nov 24
45 °FMostly cloudy.9 mph100%29.68 "HgN/A
10:55 PM45 °FDrizzle. Overcast.9 mph100%29.68 "Hg6 mi
10:25 PM45 °FRain showers. Partly cloudy.9 mph100%29.68 "Hg4 mi
9:55 PM45 °FDrizzle. Mostly cloudy.10 mph100%29.71 "Hg6 mi
9:25 PM45 °FRain showers. Partly cloudy.13 mph100%29.71 "Hg4 mi
Weather by CustomWeather, © 2015

See weather overviewHow to use our weather pages